Simultaneous Nadir Overpasses (SNOs) Predictions

Prediction of SNOs between GOES-17 and METOP-C Satellite Orbit:

Table of predicted SNOs for the next 14.0 days since TLE Epoch: 4/29/2023
Index Date Time (GOES-17) GOES-17 Lat,Lon METOP-C Lat,Lon Distance(km) Time Diff (sec)
1 04/30/2023 04:31:46 -0.01,-104.71 -0.10,-105.00 33.22 80
2 05/02/2023 16:29:59 0.01,-104.75 -0.04,-104.58 20.23 80
3 05/05/2023 04:25:39 -0.02,-104.72 0.12,-104.18 62.15 80
4 05/06/2023 16:44:30 0.02,-104.75 0.90,-108.74 454.38 80
5 05/07/2023 16:26:31 0.00,-104.75 -0.23,-103.75 114.26 80
6 05/09/2023 04:45:30 0.01,-104.71 -0.82,-108.34 414.01 80
7 05/10/2023 04:22:11 0.02,-104.70 0.31,-103.35 154.20 80
8 05/11/2023 16:41:02 -0.03,-104.72 0.68,-107.91 363.09 80
9 05/12/2023 16:23:03 -0.03,-104.72 -0.46,-102.92 205.64 80
